Station MTKN6 - 8510560 - Montauk, NY Image indicating link to RSS feed of recent meteorological observations for station MTKN6


Conditions at MTKN6 as of
(12:18 pm EDT)
1618 GMT on 06/23/2024:
     

Click on the graph icon in the table below to see a time series plot of the last five days of that observation.

5-day plot - Atmospheric Pressure Atmospheric Pressure (PRES):29.70 in
5-day plot - Air Temperature Air Temperature (ATMP): 73.0 °F
5-day plot - Water Temperature Water Temperature (WTMP): 63.3 °F
NOS Water Level Observation Network Water Level
Previous observations
TIME
(EDT)
5-day plot - Wind Direction
WDIR
 
5-day plot - Wind Speed
WSPD
kts
5-day plot - Wind Gust
GST
kts
5-day plot - Wave Height
WVHT
ft
5-day plot - Dominant Wave Period
DPD
sec
5-day plot - Average Wave Period
APD
sec
5-day plot - Mean Wave Direction
MWD
 
5-day plot - Atmospheric Pressure
PRES
in
5-day plot - Pressure Tendency
PTDY
in
5-day plot - Air Temperature
ATMP
°F
5-day plot - Water Temperature
WTMP
°F
5-day plot - Dew Point
DEWP
°F
5-day plot - Salinity
SAL
psu
5-day plot - Visibility
VIS
nmi
5-day plot - Tide (above MLLW)
TIDE
ft
2024-06-23 12:12 pm-------29.71- 72.9 63.3----
2024-06-23 12:06 pm-------29.71- 72.9 63.5----
2024-06-23 12:00 pm-------29.71- 73.6 63.5----
2024-06-23 11:54 am-------29.71- 73.6 63.5----
2024-06-23 11:48 am-------29.71- 73.8 63.7----
2024-06-23 11:42 am-------29.72- 73.4 63.7----
2024-06-23 11:36 am-------29.72- 73.2 63.7----
2024-06-23 11:30 am-------29.72- 73.2 63.7----
2024-06-23 11:24 am-------29.72- 73.2 63.5----
2024-06-23 11:18 am-------29.72-- 63.5----
2024-06-23 11:12 am-------29.72-- 63.5----
2024-06-23 11:06 am-------29.72-- 63.3----
2024-06-23 11:00 am-------29.73-0.06------
2024-06-23 10:54 am-------29.73-------
2024-06-23 10:48 am-------29.73- 72.9 63.1----
2024-06-23 10:42 am-------29.73- 72.7 63.1----
2024-06-23 10:36 am-------29.74- 72.7 63.1----
2024-06-23 10:30 am-------29.74- 72.7 63.3----
2024-06-23 10:24 am-------29.74- 72.7 63.3----
2024-06-23 10:18 am-------29.75-- 63.5----
2024-06-23 10:12 am-------29.75-- 63.5----
2024-06-23 10:06 am-------29.75-- 63.3----
2024-06-23 10:00 am--------- 72.1 63.3----
2024-06-23 09:54 am--------- 72.1 63.3----
2024-06-23 09:48 am-------29.76- 72.3 63.5----
2024-06-23 09:42 am-------29.76- 72.3 63.5----
2024-06-23 09:36 am-------29.76- 72.1 63.5----
2024-06-23 09:30 am-------29.76-- 63.7----
2024-06-23 09:24 am-------29.76-- 63.7----
2024-06-23 09:18 am-------29.77- 72.0 63.9----
2024-06-23 09:12 am-------29.77- 71.4 63.9----
2024-06-23 09:06 am-------29.77- 71.2 64.0----
2024-06-23 09:00 am---------- 64.2----
2024-06-23 08:54 am---------- 64.4----
2024-06-23 08:48 am-------29.78- 71.2 64.4----
2024-06-23 08:42 am-------29.78- 71.2 64.6----
2024-06-23 08:36 am-------29.78- 71.2 64.8----
2024-06-23 08:30 am-------29.78- 71.1 64.9----
2024-06-23 08:24 am-------29.79- 71.1 64.9----
2024-06-23 08:18 am-------29.79- 71.4 65.1----
2024-06-23 08:12 am-------29.79- 71.2 65.1----
2024-06-23 08:06 am-------29.79- 71.2 65.1----
2024-06-23 08:00 am-------29.79-0.04- 65.3----
2024-06-23 07:54 am-------29.79-- 65.3----
2024-06-23 07:48 am-------29.80- 70.5 65.3----
2024-06-23 07:42 am-------29.80- 70.5 65.5----
2024-06-23 07:36 am-------29.80- 70.7 65.5----
2024-06-23 07:30 am-------29.80- 70.7 65.5----
2024-06-23 07:24 am-------29.80- 70.5 65.5----
2024-06-23 07:18 am-------29.80-- 65.5----
2024-06-23 07:12 am-------29.80-- 65.5----
2024-06-23 07:06 am-------29.80-- 65.7----
2024-06-23 07:00 am--------- 71.2 65.7----
2024-06-23 06:54 am--------- 71.2 65.5----
2024-06-23 06:48 am-------29.80- 71.2 65.7----
2024-06-23 06:42 am-------29.81- 70.7 66.0----
2024-06-23 06:36 am-------29.81- 71.1 66.2----
2024-06-23 06:30 am-------29.81- 71.2 66.2----
2024-06-23 06:24 am-------29.82- 71.1 66.4----
2024-06-23 06:18 am-------29.82- 70.7 66.6----
2024-06-23 06:12 am-------29.82- 70.3 66.6----
2024-06-23 06:06 am-------29.82- 70.2 66.6----
2024-06-23 06:00 am-------29.82-0.07- 66.6----
2024-06-23 05:54 am-------29.82-- 66.4----
2024-06-23 05:48 am-------29.82- 68.9 66.2----
2024-06-23 05:42 am-------29.82- 69.1 66.2----
2024-06-23 05:36 am-------29.82- 68.7 66.2----
2024-06-23 05:30 am-------29.81- 68.7 66.2----
2024-06-23 05:24 am-------29.81- 68.4 66.4----
2024-06-23 05:18 am-------29.82- 67.5 66.6----
2024-06-23 05:12 am-------29.83- 68.0 66.6----
2024-06-23 05:06 am-------29.83- 68.4 66.6----
2024-06-23 05:00 am-------29.83- 67.6 66.7----
2024-06-23 04:54 am-------29.83- 67.8 66.7----
2024-06-23 04:48 am-------29.84- 67.8 66.7----
2024-06-23 04:42 am-------29.84- 67.5 66.7----
2024-06-23 04:36 am-------29.85- 67.1 66.7----
2024-06-23 04:30 am-------29.85- 66.6 66.7----
2024-06-23 04:24 am-------29.86- 66.4 66.7----
2024-06-23 04:18 am-------29.86- 66.4 66.7----
2024-06-23 04:12 am-------29.87- 66.7 66.7----
2024-06-23 04:06 am-------29.88- 67.3 66.9----
2024-06-23 04:00 am-------29.88-0.02 67.8 66.9----
2024-06-23 03:54 am-------29.87- 67.6 66.9----
2024-06-23 03:48 am-------29.87- 67.8 67.1----
2024-06-23 03:42 am-------29.88- 67.8 67.1----
2024-06-23 03:36 am-------29.89- 67.8 67.3----
2024-06-23 03:30 am-------29.88- 67.5 67.3----
2024-06-23 03:24 am-------29.88- 67.1 67.3----
2024-06-23 03:18 am-------29.88- 66.7 67.1----
2024-06-23 03:12 am-------29.88- 66.9 67.1----
2024-06-23 03:06 am-------29.88- 67.3 67.1----
2024-06-23 03:00 am-------29.89-0.02 67.6 67.1----
2024-06-23 02:54 am-------29.90- 67.8 67.1----
2024-06-23 02:48 am-------29.90- 68.2 67.1----
2024-06-23 02:42 am-------29.91- 68.0 67.1----
2024-06-23 02:36 am-------29.90- 67.8 67.1----
2024-06-23 02:30 am-------29.88- 67.8 67.1----
2024-06-23 02:24 am-------29.88- 67.8 67.1----
2024-06-23 02:18 am-------29.88- 68.0 67.1----
2024-06-23 02:12 am-------29.88- 68.0 67.1----
2024-06-23 02:06 am-------29.88- 68.0 67.1----
2024-06-23 02:00 am--------- 68.2 67.1----
2024-06-23 01:54 am--------- 68.4 66.9----
2024-06-23 01:48 am-------29.89- 68.5 66.9----
2024-06-23 01:42 am-------29.89- 68.5 66.9----
2024-06-23 01:36 am-------29.89- 68.7 66.9----
2024-06-23 01:30 am-------29.90-- 66.9----
2024-06-23 01:24 am-------29.90-- 66.7----
2024-06-23 01:18 am-------29.89- 68.9 66.7----
2024-06-23 01:12 am-------29.90- 68.9 66.7----
2024-06-23 01:06 am-------29.90- 69.1 66.7----
2024-06-23 01:00 am-------29.89-0.02 69.3 66.6----
2024-06-23 12:54 am-------29.91- 69.4 66.4----
2024-06-23 12:48 am-------29.90- 69.4 66.4----
2024-06-23 12:42 am-------29.91- 69.3 66.4----
2024-06-23 12:36 am-------29.91- 69.4 66.2----
2024-06-23 12:30 am-------29.91- 69.4 66.2----
2024-06-23 12:24 am-------29.91- 69.3 66.4----
2024-06-23 12:18 am-------29.91-- 66.6----
2024-06-23 12:12 am-------29.91-- 66.7----
2024-06-23 12:06 am-------29.91-- 66.7----
2024-06-23 12:00 am-------29.91+0.01 68.9 66.7----
2024-06-22 11:54 pm-------29.91- 68.7 66.7----
2024-06-22 11:48 pm-------29.91- 68.7 66.7----
2024-06-22 11:42 pm-------29.91- 68.7 66.7----
2024-06-22 11:36 pm-------29.92- 68.5 66.6----
2024-06-22 11:30 pm-------29.92- 68.4 66.6----
2024-06-22 11:24 pm-------29.92- 68.4 66.7----
2024-06-22 11:18 pm-------29.92- 68.4 66.7----
2024-06-22 11:12 pm-------29.92- 68.9 66.9----
2024-06-22 11:06 pm-------29.93- 70.5 66.9----
2024-06-22 11:00 pm-------29.93+0.01- 67.1----
2024-06-22 10:54 pm-------29.92-- 67.3----
2024-06-22 10:48 pm-------29.92-- 67.3----
2024-06-22 10:42 pm-------29.93-- 67.5----
2024-06-22 10:36 pm-------29.93-- 67.3----
2024-06-22 10:30 pm-------29.93- 70.3 67.5----
2024-06-22 10:24 pm-------29.92- 70.3 67.5----
2024-06-22 10:18 pm-------29.92- 70.2 67.6----
2024-06-22 10:12 pm-------29.92- 70.0 67.8----
2024-06-22 10:06 pm-------29.91- 70.2 68.0----
2024-06-22 10:00 pm-------29.91-0.03- 68.2----
2024-06-22 09:54 pm-------29.91-- 68.4----
2024-06-22 09:48 pm-------29.91- 70.0 68.4----
2024-06-22 09:42 pm-------29.91- 70.0 68.4----
2024-06-22 09:36 pm-------29.91- 70.2 68.2----
2024-06-22 09:30 pm-------29.91-------
2024-06-22 09:24 pm-------29.91-------
2024-06-22 09:18 pm-------29.90- 70.2 67.6----
2024-06-22 09:12 pm-------29.90- 70.0 67.6----
2024-06-22 09:06 pm-------29.90- 70.0 67.6----
2024-06-22 09:00 pm-------29.90-0.04 70.0 67.6----
2024-06-22 08:54 pm-------29.91- 69.8 67.5----
2024-06-22 08:48 pm-------29.90- 70.0 67.6----
2024-06-22 08:42 pm-------29.90- 69.8 67.6----
2024-06-22 08:36 pm-------29.91- 69.8 67.5----
2024-06-22 08:30 pm-------29.91- 69.6 67.5----
2024-06-22 08:24 pm-------29.91- 69.6 67.3----
2024-06-22 08:18 pm-------29.91- 69.6 67.3----
2024-06-22 08:12 pm-------29.91- 69.6 67.3----
2024-06-22 08:06 pm-------29.91- 69.3 67.3----
2024-06-22 08:00 pm-------29.91-0.01 69.1 67.3----
2024-06-22 07:54 pm-------29.92- 69.1 67.5----
2024-06-22 07:48 pm---------- 67.6----
2024-06-22 07:42 pm---------- 67.6----
2024-06-22 07:36 pm---------- 67.8----
2024-06-22 07:30 pm-------29.92- 69.3 68.0----
2024-06-22 07:24 pm-------29.92- 69.8 68.2----
2024-06-22 07:18 pm-------29.92- 70.5 68.4----
2024-06-22 07:00 pm-------29.94+0.03- 69.3----
2024-06-22 06:54 pm-------29.93-- 69.6----
2024-06-22 06:48 pm-------29.94- 70.5 69.8----
2024-06-22 06:42 pm-------29.94- 70.0 70.2----
2024-06-22 06:36 pm-------29.95- 69.6 70.3----
2024-06-22 06:30 pm-------29.95- 69.3 70.2----
2024-06-22 06:24 pm-------29.96- 68.7 70.2----
2024-06-22 06:18 pm-------29.97- 69.6 70.3----
2024-06-22 06:12 pm-------29.96- 72.0 70.3----
2024-06-22 06:06 pm-------29.95- 72.1 70.3----
2024-06-22 06:00 pm-------29.94+0.01 72.0 70.3----
2024-06-22 05:54 pm-------29.94- 71.8 70.7----
2024-06-22 05:48 pm-------29.94- 71.8 70.7----
2024-06-22 05:42 pm-------29.94- 71.6 70.7----
2024-06-22 05:36 pm-------29.93- 71.4 70.7----
2024-06-22 05:30 pm-------29.93-- 70.9----
2024-06-22 05:24 pm-------29.93-- 71.1----
2024-06-22 05:18 pm-------29.92- 71.8 71.2----
2024-06-22 05:12 pm-------29.92- 72.0 71.2----
2024-06-22 05:06 pm-------29.92- 72.0 71.4----
2024-06-22 05:00 pm-------29.92-0.02 71.8 71.6----
2024-06-22 04:54 pm-------29.92- 71.8 71.8----
2024-06-22 04:48 pm-------29.92-- 71.8----
2024-06-22 04:42 pm-------29.91-- 71.8----
2024-06-22 04:36 pm-------29.91-- 71.8----
2024-06-22 04:30 pm--------- 72.3 72.1----
2024-06-22 04:24 pm--------- 72.0 72.3----
2024-06-22 04:18 pm-------29.91-- 72.3----
2024-06-22 04:12 pm-------29.91-- 72.3----
2024-06-22 04:06 pm-------29.91-- 72.1----
2024-06-22 04:00 pm-------29.91-0.05 72.7 72.1----
2024-06-22 03:54 pm-------29.91- 73.9 72.0----
2024-06-22 03:48 pm-------29.92- 73.6 72.0----
2024-06-22 03:42 pm-------29.92- 73.4 72.1----
2024-06-22 03:36 pm-------29.92- 73.4 72.1----
2024-06-22 03:30 pm-------29.92- 73.8 72.3----
2024-06-22 03:24 pm-------29.92- 73.9 72.3----
2024-06-22 03:18 pm-------29.93- 74.5 72.3----
2024-06-22 03:12 pm-------29.93- 74.8 72.3----
2024-06-22 03:06 pm-------29.93- 75.0 72.5----
2024-06-22 03:00 pm-------29.93-0.04 74.8 72.3----
2024-06-22 02:54 pm-------29.93- 75.7 72.1----
2024-06-22 02:48 pm-------29.93- 75.2 72.0----
2024-06-22 02:42 pm-------29.93- 76.1 71.4----
2024-06-22 02:36 pm-------29.94- 76.5 71.6----
2024-06-22 02:30 pm-------29.94- 76.3 72.0----
2024-06-22 02:24 pm-------29.94- 76.3 71.6----
2024-06-22 02:18 pm-------29.94- 76.1-----
2024-06-22 02:12 pm-------29.94- 75.6-----
2024-06-22 02:06 pm-------29.94- 75.0-----
2024-06-22 02:00 pm-------29.94-0.05 75.2 70.3----
2024-06-22 01:54 pm-------29.94- 74.7 70.3----
2024-06-22 01:48 pm-------29.94- 75.0 70.2----
2024-06-22 01:42 pm-------29.94- 75.4 69.8----
2024-06-22 01:36 pm-------29.94- 75.9 69.6----
2024-06-22 01:30 pm-------29.95- 75.6 69.4----
2024-06-22 01:24 pm-------29.95- 76.1 69.3----
2024-06-22 01:18 pm-------29.95- 76.1 69.3----
2024-06-22 01:12 pm-------29.96- 76.8 69.3----
2024-06-22 01:06 pm-------29.96- 75.9 69.3----
2024-06-22 01:00 pm-------29.96-0.04 75.7 69.3----
2024-06-22 12:54 pm-------29.96- 75.7 69.3----
2024-06-22 12:48 pm-------29.96- 75.6 69.1----
2024-06-22 12:42 pm-------29.96- 76.1 68.9----
2024-06-22 12:36 pm-------29.96- 76.3 68.7----
2024-06-22 12:30 pm-------29.96- 76.5 68.5----
2024-06-22 12:24 pm-------29.96- 75.7 68.5----
2024-06-22 12:18 pm-------29.97- 76.5 68.5----
2024-06-22 12:12 pm-------29.97- 75.9 68.5----
2024-06-22 12:06 pm-------29.97- 76.5 68.5----
2024-06-22 12:00 pm-------29.97-0.03 77.4 68.5----
2024-06-22 11:54 am-------29.97- 77.2 68.7----